This is the latest recevied weather packets stored in our database for station/object K9MWD. If no packets are shown the sender has not sent any weather packets the latest 10 day(s).
| Time | Temp. | Humidity | Pressure | Rain* | Wind** | Luminosity | Snow |
|---|---|---|---|---|---|---|---|
| 1787858665 | 36.67° C | 41% | 1014.7 hPa | 0 mm | - | 836 W/m² | - |
| 1787858360 | 37.22° C | 43% | 1015 hPa | 0 mm | - | 842 W/m² | - |
| 1787858055 | 36.67° C | 42% | 1014.7 hPa | 0 mm | - | 843 W/m² | - |
| 1787857750 | 36.67° C | 43% | 1015 hPa | 0 mm | - | 853 W/m² | - |
| 1787857447 | 36.67° C | 43% | 1014.6 hPa | 0 mm | - | 845 W/m² | - |
| 1787857144 | 36.67° C | 43% | 1015 hPa | 0 mm | - | 858 W/m² | - |
| 1787856840 | 36.67° C | 44% | 1014.7 hPa | 0 mm | - | 853 W/m² | - |
| 1787856540 | 36.67° C | 45% | 1015 hPa | 0 mm | - | 850 W/m² | - |
| 1787856235 | 36.67° C | 44% | 1015 hPa | 0 mm | - | 870 W/m² | - |
| 1787855930 | 36.67° C | 44% | 1015.2 hPa | 0 mm | - | 855 W/m² | - |
| 1787855630 | 36.67° C | 45% | 1015.2 hPa | 0 mm | - | 860 W/m² | - |
| 1787855325 | 36.67° C | 45% | 1015.1 hPa | 0 mm | - | 854 W/m² | - |
| 1787855020 | 36.11° C | 45% | 1015.1 hPa | 0 mm | - | 867 W/m² | - |
| 1787854716 | 36.67° C | 44% | 1015.2 hPa | 0 mm | - | 871 W/m² | - |
| 1787854415 | 36.11° C | 47% | 1015.3 hPa | 0 mm | - | 869 W/m² | - |
| 1787854114 | 36.67° C | 45% | 1015.4 hPa | 0 mm | - | 865 W/m² | - |
| 1787853810 | 36.67° C | 46% | 1015.3 hPa | 0 mm | - | 857 W/m² | - |
| 1787853508 | 35.56° C | 49% | 1015.3 hPa | 0 mm | - | 849 W/m² | - |
| 1787853203 | 35.56° C | 47% | 1015.4 hPa | 0 mm | - | 861 W/m² | - |
| 1787852902 | 35.56° C | 49% | 1015.4 hPa | 0 mm | - | 850 W/m² | - |
| 1787852597 | 35.56° C | 48% | 1015.3 hPa | 0 mm | - | 849 W/m² | - |
| 1787852297 | 35.56° C | 48% | 1015.5 hPa | 0 mm | - | 831 W/m² | - |
| 1787851996 | 36.11° C | 48% | 1015.6 hPa | 0 mm | - | 836 W/m² | - |
| 1787851690 | 35.56° C | 48% | 1015.5 hPa | 0 mm | - | 832 W/m² | - |
| 1787851390 | 35.56° C | 49% | 1015.4 hPa | 0 mm | - | 824 W/m² | - |
* Rain latest hour (hover to see other rain measurements)
** Current wind speed in m/s (hover to see current wind gust speed)